OPS 4682 DEB, 14515

Orbit data source: Space-Track

OPS 4682 DEB, 14515 is space debris in LEO originally from a launch on Sat, 03 Apr 1965 UTC launched from the Air Force Western Test Range (AFWTR). Debris objects in space refer to the collection of defunct objects orbiting the Earth. Examples of debris include non-operational satellites, rocket bodies, and fragments generated from explosions, collisions, or faulty payload assembly.

Loading next visibility...
Identifier
14515, 1965-027M
Orbit
LEO
Country
Flag of USUS
Related business
Manufacturer
Unknown
Mission
Spacecraft
Bus & Motor
Unknown
Mass
Unknown
Launch date (UTC)
1965-04-03 (61 years ago)
Launch vehicle
Unknown
Launch site
Air Force Western Test Range (AFWTR)
Object type
Payload
Rocket body
Debris
Shape & HBR
Unknown shape, 0.1 m
Radar Cross Section
Small (<0.1 m²)

Expand to show TLE details & history
Last TLE update: 6 days ago

TLE from 6 days ago
0 OPS 4682 DEB
1 14515U 65027M   25347.80168447  .00000684  00000-0  23325-2 0  9990
2 14515  90.2420   3.9445 0028505 190.3714 169.6822 12.97324742560270
Epoch: 2025-12-13T19:14Z
TLE epoch observation values (Epoch: 2025-12-13T19:14:25.538Z)
Latitude
-0.00001°
Longitude
-7.38564°
Altitude
1,296.928 km
Speed
7.198 km/s
True Right ascension
00h 15m 46s
True Declination
0° 00' 00"
Sunlit
Object was in daylight at epoch
Visualization orbit readout
Latitude
Unknown
Longitude
Unknown
Altitude
Unknown
Speed
Unknown
Apparent Right ascension
Unknown
Apparent Declination
Unknown
Sunlit
N/A
Visualization observer readout
Local Sidereal Time
12:43:30
Azimuth
Unknown
Elevation
Unknown
Doppler factor
Unknown
Orbital elements
Apogee altitude
1,291.518 km
Perigee altitude
1,247.917 km
Semi-major axis
7,647.854 km
Eccentricity
0.00285
Inclination
90.242°
RAAN
3.9445°
Arg. of periapsis
190.3714°
True anomaly
169.7405°
Mean anomaly
169.6822°
Eccentric anomaly
169.71137°
Mean motion
3.24514 °/min
Orbital period
110.94 mins
BSTAR
0.0023325
Loading maneuver chart data...
Computing Atmospheric mass density...
Loading historical data...
Loading historical data...
Loading historical data...
Loading historical data...
Loading historical data...
Loading historical data...
Loading historical data...

Documentation

Showing up to 5 results
|